Wind_Speed
48 51 53 55 52 50 49 47 47 47 46 44 43 44 39 35 40 36 34 40 35 31 33 28 28 32 35 39 35 25 29 36 39 42 37 37 40 40 41 37 33 32 31 28 25 22 22 23 23 21 19 20 25 27 25 23 23 23 23 24 26 28 29 29 30 31 30 30 30 30 29 27 26 23 21 20 17 16 14 13 12 12 12 12 12 12
48 51 53 52 50 49 47 46 47 46 46 45 41 43 41 38 38 33 35 43 36 31 33 30 29 32 37 42 39 32 32 36 40 40 36 38 41 41 40 36 31 31 30 27 26 26 27 25 23 22 21 20 24 27 27 26 26 25 24 25 27 28 30 31 32 33 32 31 32 31 27 25 24 22 20 18 16 15 14 13 13 13 13 13 12 12
49 51 51 50 49 48 47 48 48 45 48 49 44 44 43 40 35 29 37 45 37 32 32 31 30 30 35 41 40 36 36 35 38 41 41 41 40 38 36 33 30 31 30 28 29 29 27 24 23 24 24 24 24 26 27 29 28 28 27 26 27 29 32 34 34 32 30 30 27 24 21 21 22 19 17 16 15 14 13 13 13 13 14 13 12 12
49 49 49 50 49 48 49 49 48 47 50 52 49 47 42 38 33 26 37 47 38 32 31 30 31 30 32 39 40 37 36 35 38 42 43 40 35 33 32 28 28 31 30 29 30 28 25 24 23 23 24 24 25 24 26 28 28 28 29 28 29 32 35 35 31 27 23 21 21 20 19 18 18 18 17 16 16 16 15 14 14 14 14 14 13 13
45 46 47 49 49 49 50 50 49 50 53 52 49 45 38 35 34 27 34 47 38 31 32 30 31 32 33 37 39 36 35 37 41 42 40 38 34 32 32 28 28 30 28 28 30 29 26 24 22 22 22 23 24 24 24 26 26 28 30 30 32 36 36 30 26 24 21 20 21 23 22 20 18 18 18 17 16 16 15 15 15 15 15 14 14 14
43 45 46 47 48 49 52 50 48 51 53 50 47 44 39 34 34 32 36 44 40 34 37 35 32 34 34 35 35 34 36 39 40 41 39 37 33 31 32 30 30 32 29 28 29 27 25 23 21 20 21 21 22 26 27 25 25 28 31 33 35 37 32 23 20 21 24 26 26 25 24 22 19 17 17 16 15 15 16 16 16 16 15 15 15 15
43 45 45 46 48 50 52 49 49 52 50 47 46 45 43 36 30 35 42 45 41 37 37 36 34 31 30 33 34 33 35 37 38 40 40 36 31 30 30 30 29 31 31 28 26 25 23 20 19 18 19 20 22 26 29 28 27 29 31 33 36 36 31 26 23 23 25 27 27 26 23 20 20 19 17 16 15 16 16 16 17 17 16 16 16 17
44 44 45 46 50 52 52 50 50 51 47 45 47 45 45 41 33 36 45 45 39 35 34 37 36 28 24 30 35 31 30 34 37 37 38 37 33 30 29 30 29 30 31 28 25 23 21 20 19 17 17 19 23 27 30 30 29 28 29 33 36 34 33 33 31 28 25 23 23 22 21 19 19 18 16 15 16 17 17 18 18 18 18 17 18 18
42 43 46 49 53 54 51 49 48 48 46 44 45 46 46 47 42 39 43 42 36 32 31 37 40 34 27 27 31 32 33 34 34 35 36 36 33 30 29 32 32 32 33 29 26 23 22 22 21 19 18 20 24 29 32 33 31 29 30 33 35 34 34 34 32 30 25 21 19 20 21 20 18 17 17 17 18 18 19 19 19 19 19 19 19 19
41 43 49 53 53 51 47 47 47 47 46 41 40 46 49 49 47 44 44 41 36 34 31 35 41 39 34 26 27 33 36 35 32 32 34 32 30 29 30 32 33 33 34 31 27 24 23 25 24 22 21 22 25 29 32 32 30 28 29 33 36 36 35 33 32 29 25 22 21 19 19 20 20 20 20 20 20 20 20 20 20 20 20 20 20 20
41 45 52 52 48 46 44 46 49 48 46 41 40 47 50 48 46 46 45 39 37 40 39 39 42 41 37 29 29 34 33 31 32 30 30 30 28 29 30 32 32 32 33 31 28 26 27 28 27 25 23 23 26 28 31 31 29 28 29 31 35 35 35 33 31 29 26 24 22 18 18 20 21 20 20 21 21 21 21 21 20 20 20 21 21 21
45 49 52 49 45 45 46 47 50 48 45 47 50 51 50 47 45 45 44 40 42 46 45 44 42 39 37 31 30 36 33 28 29 28 27 30 29 29 31 31 31 32 32 31 28 27 28 29 28 27 24 24 26 28 32 32 31 31 30 31 32 33 34 33 30 27 22 21 20 19 19 20 20 21 21 22 22 22 22 21 21 21 20 21 21 21
47 51 51 47 44 47 50 49 51 49 46 52 57 52 48 47 47 47 46 45 47 46 43 45 42 36 38 35 24 29 34 32 29 27 25 28 30 30 31 29 28 30 30 27 27 27 27 28 30 28 26 25 26 29 32 32 31 30 30 31 32 33 33 28 24 21 20 20 21 20 20 21 21 22 22 23 23 23 22 22 21 21 20 21 21 21
43 49 50 45 45 50 51 50 52 52 50 55 56 50 49 49 49 51 49 48 49 46 43 42 40 36 39 39 28 23 32 35 32 29 27 27 30 30 31 28 25 26 27 25 26 26 25 28 31 30 28 26 27 30 31 31 29 28 29 31 31 32 32 27 23 22 23 24 24 22 22 22 23 23 23 24 24 23 23 22 22 21 21 21 21 21
44 49 48 45 47 51 51 51 53 51 50 55 53 46 47 48 49 52 49 46 46 46 44 42 40 37 36 38 38 35 35 34 31 30 29 29 30 30 29 27 24 25 26 25 24 24 26 29 31 30 29 27 28 30 32 31 28 28 29 31 32 32 32 30 28 27 26 26 25 24 23 24 24 24 25 25 24 24 24 23 22 22 22 21 21 21
44 47 43 43 48 50 52 54 52 47 47 54 51 46 49 46 42 48 47 42 41 41 43 45 43 39 39 41 44 45 41 33 30 30 30 29 29 30 29 26 25 26 25 25 26 27 28 29 30 31 29 27 28 29 31 31 30 30 30 31 31 31 31 30 29 27 27 26 26 25 25 25 25 25 25 25 25 25 24 24 23 23 22 21 21 21
40 41 40 43 47 50 53 52 49 47 47 51 50 49 52 43 31 38 47 44 42 40 40 48 48 45 47 47 43 45 43 34 31 30 29 30 29 29 29 26 26 27 26 27 28 29 30 30 31 30 27 25 26 27 28 30 32 31 30 29 27 27 27 27 27 28 28 28 27 26 26 26 25 25 25 26 26 26 25 25 24 23 23 22 21 21
37 31 36 43 45 48 50 47 47 49 48 48 50 49 48 41 29 27 35 40 44 43 38 44 51 49 49 49 44 44 44 38 34 31 30 31 31 30 29 27 28 29 29 29 28 27 29 29 29 26 23 23 26 27 28 29 31 32 30 28 27 27 26 27 27 28 29 29 28 27 26 26 25 25 26 26 26 26 26 25 24 24 23 22 22 22
33 24 32 41 43 47 49 47 49 52 51 48 47 46 43 45 39 26 25 37 47 48 38 35 46 51 47 49 48 43 42 41 37 34 33 33 31 30 30 29 30 31 30 27 24 23 24 25 25 25 24 25 27 29 28 28 31 33 32 30 29 28 27 27 27 28 29 29 27 26 26 26 26 26 26 27 27 27 26 26 25 24 23 23 23 23
31 25 32 40 42 46 48 49 51 53 55 51 46 46 47 49 46 34 31 39 44 47 42 30 33 43 45 46 48 43 39 39 37 35 34 33 32 31 30 30 31 30 27 24 23 23 23 24 26 27 26 26 27 28 29 29 34 37 35 32 30 28 27 27 27 28 28 27 26 26 27 27 27 27 27 28 28 28 28 27 25 25 24 24 24 24
32 27 31 38 40 44 47 50 53 53 54 53 50 49 49 48 47 39 34 38 38 39 44 38 25 27 37 43 46 44 41 39 37 36 35 34 34 32 31 31 30 27 24 24 25 25 24 25 25 26 25 26 28 30 32 34 37 40 39 35 30 28 27 28 28 28 27 26 26 26 27 28 28 28 29 29 29 29 29 27 26 25 25 25 25 26
34 30 32 38 39 42 45 48 52 51 49 51 53 52 50 48 48 44 36 36 34 28 34 43 36 31 38 44 44 43 41 40 39 38 37 36 35 34 32 30 28 26 24 25 26 25 24 23 23 24 26 28 30 32 34 36 38 41 41 37 32 28 29 30 30 29 28 27 27 27 28 28 28 29 29 29 29 29 28 27 26 26 26 26 27 27
34 31 33 37 37 38 42 45 49 48 45 49 53 54 52 46 40 40 36 32 32 28 25 30 34 39 44 45 44 41 39 39 39 39 39 38 37 35 32 29 27 26 25 26 26 24 23 23 23 24 26 28 31 34 36 38 39 40 40 39 34 31 31 32 31 29 28 28 29 28 28 28 28 28 28 28 28 27 27 26 26 27 27 28 28 29
34 32 31 32 32 33 37 41 45 46 45 49 52 52 53 47 39 38 33 29 31 34 31 23 23 33 40 41 43 41 38 38 38 39 39 38 37 34 30 28 27 26 26 26 25 23 22 24 25 24 24 25 29 34 37 39 40 40 40 40 36 32 32 32 31 30 29 29 29 29 29 28 28 27 27 27 26 26 26 27 27 28 28 29 29 30
36 33 29 29 30 32 35 39 45 48 49 51 51 52 52 46 43 43 39 32 28 31 36 31 25 28 32 34 38 39 37 37 37 39 41 38 36 32 29 28 28 26 26 26 24 22 23 24 24 23 23 23 26 31 34 38 41 40 38 37 35 32 31 30 29 30 30 30 30 29 28 28 27 27 27 27 26 26 27 28 28 29 29 30 30 30
38 33 31 33 34 38 41 43 46 49 51 52 50 53 54 46 43 48 48 43 35 29 33 35 32 32 32 32 34 36 36 34 33 37 40 37 34 31 29 29 28 27 26 25 24 24 24 23 22 21 23 25 27 29 30 34 39 39 36 35 34 33 31 29 28 29 31 30 29 28 28 28 28 28 27 27 27 28 29 29 29 30 30 31 31 31
40 35 33 33 35 38 37 36 40 46 50 52 50 51 55 52 48 46 48 52 46 33 28 31 33 34 33 32 33 34 34 32 31 32 33 32 30 29 28 28 28 27 25 26 27 26 24 23 23 23 24 26 28 29 29 32 37 40 39 37 36 35 32 30 29 29 31 30 27 26 26 26 25 25 25 26 26 27 28 29 30 30 30 31 31 31
39 36 34 32 31 29 27 29 38 45 48 50 50 49 51 52 50 46 47 51 49 38 31 31 35 37 35 34 34 34 35 34 32 29 28 28 27 27 28 28 27 26 26 28 28 27 26 25 24 25 25 25 26 27 29 31 34 38 40 39 38 37 32 29 27 25 25 25 24 24 24 24 24 24 24 24 25 25 27 28 29 30 31 31 32 32
36 35 34 32 28 24 23 27 34 40 43 45 47 48 49 50 52 51 50 48 48 43 33 28 34 40 40 38 35 34 34 33 32 29 28 27 27 26 26 27 26 27 27 28 28 28 27 25 24 24 24 24 24 24 28 32 33 36 39 40 40 37 31 29 29 27 25 24 23 23 24 23 24 24 25 25 25 25 26 27 29 30 31 32 32 33
35 36 36 34 29 25 22 23 25 30 37 43 46 47 48 49 51 52 51 48 45 40 32 26 28 35 39 39 37 35 33 30 30 30 28 27 26 26 26 26 26 27 27 27 28 29 27 25 26 26 25 24 22 21 23 26 28 29 31 33 34 33 30 29 30 29 26 25 24 23 23 23 24 24 25 25 26 26 27 28 29 30 31 32 33 34
35 34 36 35 31 28 24 21 24 29 36 42 44 44 44 46 48 49 50 49 46 40 38 37 33 32 36 40 38 34 29 25 25 27 27 25 24 25 26 27 27 27 28 29 29 28 28 28 29 27 25 23 21 19 18 17 19 22 23 25 27 27 28 28 27 26 25 24 24 23 24 24 24 25 25 25 26 27 28 29 30 31 32 33 34 36
35 33 35 36 33 31 29 29 32 34 37 41 42 42 42 43 45 46 47 48 49 45 43 43 40 37 38 39 38 36 31 24 22 23 25 24 23 24 26 27 27 28 29 29 29 29 30 29 27 25 23 21 20 20 19 17 17 19 19 21 22 22 23 25 25 24 24 24 25 25 25 26 26 26 26 26 27 28 29 29 30 31 33 34 36 37
34 33 34 36 36 33 30 31 32 32 36 42 43 43 44 44 45 46 46 46 47 47 45 44 42 40 37 33 32 35 34 29 24 22 23 23 23 23 24 26 28 29 29 29 30 30 29 27 26 25 24 23 23 24 24 22 19 16 15 16 17 17 18 21 22 22 23 25 27 27 27 27 28 28 28 27 28 28 29 30 31 32 34 35 37 38
34 32 30 33 36 33 28 26 29 30 35 41 44 43 44 45 46 46 46 46 47 47 46 45 42 41 40 35 29 29 32 31 28 25 24 23 23 23 24 26 27 27 27 28 29 29 27 26 27 27 26 26 25 25 24 20 15 14 14 14 15 16 17 18 21 23 25 27 27 28 28 29 29 29 29 28 28 28 29 30 31 33 34 35 37 37
32 29 27 30 32 30 27 25 27 31 33 37 40 41 41 42 44 46 46 45 46 46 45 45 43 42 43 40 33 30 30 31 31 28 26 24 24 24 25 25 25 26 27 28 29 28 27 26 24 22 21 20 20 20 20 16 14 14 15 16 16 18 19 20 23 25 26 27 27 28 29 29 29 28 27 27 28 29 30 31 32 33 34 35 36 37
28 27 28 29 28 28 28 28 28 29 31 33 36 38 39 38 39 43 45 45 45 46 44 44 43 41 41 39 36 33 31 30 30 29 27 26 25 25 25 24 24 27 29 29 29 28 27 26 23 21 19 18 16 16 17 17 17 17 18 19 20 21 22 23 24 25 26 27 27 27 28 28 27 27 27 28 30 31 32 32 33 34 34 34 36 37
25 26 27 28 28 27 27 27 27 26 28 30 33 34 37 38 37 37 39 42 44 43 40 40 40 40 40 38 36 35 33 30 29 28 27 26 25 25 25 25 26 28 29 29 28 26 24 24 24 23 22 20 19 18 17 17 17 18 19 21 22 23 24 25 25 25 26 26 26 27 27 28 28 29 30 31 32 33 33 33 33 34 35 35 36 36
26 26 26 26 26 26 26 27 26 24 24 27 30 31 32 35 36 35 35 37 39 38 37 38 39 40 39 37 35 34 34 32 30 28 27 26 26 26 25 26 27 28 28 29 27 24 22 22 22 21 20 19 19 19 19 18 19 19 20 21 22 23 25 25 26 27 27 27 27 27 27 28 30 32 34 35 35 34 33 33 34 35 35 34 33 32
25 25 26 26 24 24 26 28 26 24 23 23 26 28 30 32 34 35 36 36 37 37 35 35 38 39 38 35 32 31 30 30 28 27 26 26 26 25 24 25 25 26 27 27 25 23 23 24 23 21 19 18 18 19 19 19 20 20 20 21 22 23 24 26 27 28 28 28 28 27 27 29 31 32 33 34 34 34 34 35 35 33 31 29 28 29
25 26 28 29 26 24 26 27 24 24 24 23 23 26 28 29 31 34 36 36 36 36 35 34 35 36 35 33 30 28 27 27 26 27 27 26 26 24 23 22 22 22 23 21 19 21 23 23 22 20 18 18 18 19 20 20 20 20 21 21 22 23 23 24 25 26 27 27 26 26 27 27 28 28 29 31 32 33 33 33 30 27 26 26 27 28
25 26 28 28 26 26 26 25 22 22 24 23 23 24 26 28 30 34 36 36 35 34 34 34 35 34 33 31 28 26 25 26 26 27 27 27 26 25 23 22 21 22 21 19 18 20 22 21 20 18 18 19 20 20 20 21 21 21 21 22 23 23 23 24 24 25 25 24 24 24 24 24 25 27 29 30 30 29 27 25 23 23 24 25 26 27
24 26 26 27 27 26 25 23 21 21 22 22 22 23 24 25 29 33 34 34 33 32 32 33 33 32 31 29 28 28 28 27 26 26 26 26 25 24 22 22 22 22 20 20 20 21 21 20 19 19 20 21 21 21 22 22 21 21 22 22 22 23 23 22 22 22 21 21 22 21 21 21 23 25 25 24 23 22 21 21 21 22 23 24 26 27
22 24 25 26 27 27 26 25 24 22 22 22 21 22 24 25 27 30 31 30 30 30 31 32 31 29 29 29 30 31 30 28 27 27 27 26 25 25 24 22 21 20 19 19 20 20 20 20 20 21 21 21 22 22 22 21 21 21 21 21 21 21 20 19 19 19 18 18 18 18 18 19 20 20 19 19 19 20 20 20 21 22 23 24 25 26
21 23 25 25 26 25 25 28 29 25 22 22 22 22 23 24 25 27 28 28 29 29 30 31 30 28 28 29 30 31 30 29 28 28 27 27 26 25 24 23 22 21 20 21 21 20 20 20 20 21 21 21 22 22 22 21 21 21 20 20 19 19 18 18 17 17 17 16 16 16 16 16 17 18 19 19 20 20 20 20 21 22 23 24 25 25
20 22 25 26 26 25 24 26 28 26 22 22 23 22 21 22 24 26 27 27 28 29 29 29 29 28 28 28 28 28 29 28 28 28 27 27 26 25 24 25 25 24 23 23 22 21 20 20 20 20 21 21 22 21 21 21 21 21 20 20 19 18 18 17 16 16 16 15 14 14 15 16 17 18 19 19 19 19 20 20 21 22 23 24 24 25
20 22 23 26 28 29 27 25 26 26 24 23 23 23 23 22 22 24 25 26 28 29 29 28 27 27 27 27 25 25 26 27 28 28 27 26 26 25 26 26 26 25 24 23 22 21 20 21 21 21 21 21 21 21 21 21 22 22 21 20 20 19 18 17 16 16 15 15 14 15 16 17 18 18 18 18 18 18 19 20 20 22 23 23 24 23
21 22 23 24 27 29 29 27 26 26 26 25 24 25 25 24 22 23 25 26 27 28 28 27 27 27 26 25 23 23 25 26 27 28 27 27 27 26 26 25 25 25 25 23 22 21 21 22 22 21 21 21 21 21 22 22 22 22 22 21 20 19 18 17 17 16 16 15 15 16 17 17 17 17 17 17 18 18 19 20 21 22 23 23 23 23
19 21 22 22 23 26 29 29 27 26 27 27 26 25 25 24 23 24 26 27 27 28 28 27 27 26 25 23 23 24 25 25 26 27 27 27 27 27 26 25 25 25 25 24 23 22 23 22 22 21 21 21 22 22 22 22 22 21 21 20 19 19 18 18 17 16 16 16 16 16 16 16 16 17 17 17 18 18 19 20 21 22 22 22 22 22
17 19 21 20 20 24 28 29 29 28 29 29 28 26 25 24 23 24 27 28 28 27 27 27 26 26 25 24 23 24 25 26 27 27 27 27 28 27 26 26 26 26 25 25 24 23 23 22 21 20 20 21 21 22 22 22 21 20 20 19 18 18 18 17 16 16 16 16 16 16 16 16 17 17 17 18 18 18 20 21 22 22 22 22 22 22
18 18 19 19 21 23 25 28 31 32 31 30 28 27 26 25 24 24 25 27 27 28 28 28 27 26 25 24 24 24 25 26 27 28 28 28 28 27 27 28 27 27 27 27 26 24 24 23 21 20 20 20 21 21 22 21 20 20 19 19 18 18 17 16 16 16 15 15 15 16 16 17 17 17 18 18 18 19 20 21 21 21 21 21 21 22
19 17 17 18 20 20 21 25 28 30 30 28 26 26 27 26 25 24 25 25 26 27 28 28 28 28 26 26 26 26 26 27 28 28 28 29 30 30 30 30 29 29 29 28 26 25 24 23 22 21 21 21 21 22 22 21 21 20 20 19 19 18 17 16 16 16 16 16 16 16 17 17 18 18 18 18 19 20 21 21 21 21 21 21 21 21
Wind_Direction
220 220 220 220 220 220 220 220 220 219 217 218 222 223 219 224 228 221 229 237 227 227 235 230 226 219 203 216 231 221 217 220 226 231 226 225 229 228 229 227 222 221 221 222 222 224 225 227 232 231 228 228 229 230 231 228 225 225 227 228 229 231 232 233 233 234 234 234 236 239 239 240 242 242 243 247 251 256 264 271 275 277 279 282 287 294
220 220 220 221 220 220 220 219 219 216 215 215 218 221 216 218 226 221 227 235 228 225 233 231 226 222 214 222 233 232 229 225 226 233 230 227 228 227 228 226 223 221 219 220 221 220 220 221 229 232 228 228 230 232 235 236 231 226 226 227 228 229 231 232 233 233 233 235 237 239 239 238 239 237 237 243 248 253 260 264 270 276 279 284 290 297
219 219 219 219 219 220 219 218 217 214 215 215 213 216 214 217 222 219 228 233 226 223 230 231 228 225 220 225 234 234 231 230 228 229 229 229 231 230 231 229 222 217 215 218 220 220 220 218 223 231 233 230 228 230 234 237 235 229 226 228 229 229 231 230 232 235 236 237 240 242 243 241 236 233 235 241 247 253 259 263 268 276 281 288 297 303
221 219 218 217 216 218 218 217 215 212 215 216 215 216 214 215 214 212 230 232 223 220 225 229 230 227 223 225 232 233 230 232 233 230 228 230 233 232 233 234 224 216 215 215 217 221 223 222 223 231 237 234 229 231 233 235 235 230 226 228 230 231 231 232 236 239 239 240 244 244 245 245 244 243 241 245 250 253 258 265 271 279 285 294 303 309
223 221 219 217 215 216 218 217 213 212 215 216 216 216 212 214 210 205 227 232 222 217 221 223 227 227 223 224 230 232 229 231 234 234 232 230 232 230 230 229 220 220 224 220 217 217 220 226 228 232 239 237 234 236 234 233 231 228 226 227 231 233 233 237 240 239 237 239 239 237 240 244 247 247 243 247 255 255 260 269 275 282 289 298 307 311
221 220 219 218 216 216 218 216 212 214 216 215 214 212 207 207 209 207 222 230 222 216 220 220 223 226 224 225 229 231 230 230 234 238 236 231 229 230 230 229 221 217 221 222 220 219 219 225 231 235 238 236 238 237 230 224 223 223 225 228 233 236 239 245 247 242 240 240 236 234 238 239 241 248 247 248 257 260 266 273 278 284 291 299 305 308
219 218 217 216 216 217 219 216 212 214 215 214 213 211 207 202 206 216 223 227 223 219 223 223 223 228 232 233 229 228 231 231 234 240 240 235 229 227 230 233 229 221 221 223 222 222 223 225 233 239 236 233 237 234 224 217 218 221 225 230 234 236 240 247 248 244 240 238 234 232 238 240 244 251 247 245 257 267 272 276 280 285 291 296 299 302
217 217 215 214 216 216 217 215 214 215 212 212 212 210 209 203 201 217 223 225 224 222 225 225 221 221 229 238 234 227 230 231 231 235 241 240 232 224 226 230 229 227 227 226 221 222 228 230 233 237 235 231 233 230 221 216 219 224 229 232 233 234 238 242 245 246 242 237 235 236 241 243 242 243 242 251 265 271 275 276 278 283 287 291 295 298
215 217 215 213 215 214 214 215 215 215 209 209 213 209 208 208 204 213 221 221 220 218 223 226 222 216 214 230 237 226 224 230 232 233 237 239 233 224 227 229 227 229 230 228 224 224 229 233 234 235 234 230 229 228 224 222 227 235 237 234 232 233 236 242 248 252 247 242 246 249 245 239 238 243 254 265 270 271 273 274 276 280 284 288 291 294
214 216 218 215 215 213 211 214 214 213 206 204 212 209 208 212 210 214 220 218 216 214 219 226 224 220 214 220 233 224 219 226 231 234 236 235 231 227 228 229 231 234 235 230 226 225 228 233 233 233 236 232 228 228 228 229 235 242 240 234 232 234 237 243 249 249 248 250 254 251 242 239 247 255 261 265 267 269 271 272 274 278 282 285 288 290
214 216 220 216 212 211 211 213 213 212 203 199 210 209 206 211 213 217 220 216 214 215 217 221 221 221 217 218 230 225 217 223 229 234 239 236 229 225 223 227 231 232 231 227 224 225 230 235 234 234 237 236 232 230 229 232 239 244 242 237 235 236 239 245 247 245 245 247 245 242 244 249 255 258 260 263 265 267 269 270 273 277 281 284 286 288
213 215 220 215 208 208 209 211 213 210 200 201 212 210 205 208 210 216 219 214 215 218 219 221 221 223 219 215 232 234 220 219 229 232 235 239 237 231 226 225 227 225 226 227 226 228 233 238 239 236 236 239 237 234 233 236 242 246 244 241 238 237 240 245 246 241 237 237 239 247 255 256 256 258 261 263 264 266 267 269 272 275 279 282 284 286
214 215 218 214 205 206 208 208 212 208 198 205 213 208 204 207 209 214 216 215 217 217 219 222 221 224 222 212 221 245 232 217 224 228 226 235 241 240 237 231 226 225 227 229 229 231 234 239 242 238 236 239 238 237 239 239 241 243 243 241 237 237 240 242 240 236 237 245 252 259 260 258 259 260 261 262 264 265 266 267 270 273 277 280 283 284
214 216 216 211 204 206 207 207 211 206 200 209 213 207 204 207 209 212 215 217 218 217 218 220 218 220 225 216 204 226 230 214 215 223 221 226 233 239 244 238 230 229 231 231 232 233 235 239 242 239 237 237 237 240 239 234 235 240 241 237 235 236 238 239 240 245 252 257 260 261 260 260 260 260 261 263 264 265 265 266 268 271 275 279 281 282
216 216 213 208 204 206 206 207 212 206 202 211 212 205 206 207 210 214 213 215 218 218 219 219 217 217 223 222 210 214 224 213 209 219 220 223 229 234 241 241 236 235 234 233 233 232 233 237 240 239 237 235 236 238 234 229 233 239 237 233 231 233 236 242 249 255 258 258 258 258 258 258 259 259 261 263 264 264 264 265 267 271 275 277 278 280
218 219 214 208 206 206 205 207 210 204 204 212 209 203 205 205 211 217 214 215 218 218 220 220 218 215 217 222 218 220 226 218 210 216 221 224 228 233 237 240 241 239 236 234 233 231 232 236 239 239 238 235 236 240 238 237 239 237 234 232 230 234 241 248 254 257 257 255 254 254 254 256 257 259 261 262 262 262 262 263 267 270 273 274 276 278
215 218 217 211 206 207 208 208 207 202 204 212 207 203 205 200 206 218 215 217 218 216 221 223 220 219 221 223 223 223 225 220 214 216 222 225 228 234 237 239 242 242 239 235 232 230 231 233 236 240 240 239 243 247 247 248 245 240 238 239 240 245 249 250 252 253 252 251 250 251 253 255 257 259 261 261 261 261 262 265 267 269 271 273 276 279
212 213 220 215 207 209 208 206 207 203 203 209 207 204 204 199 200 216 217 217 218 216 220 226 223 223 227 228 227 227 226 224 221 220 224 227 228 232 236 237 240 242 239 236 234 234 234 234 237 241 242 242 245 245 244 244 243 241 242 245 249 252 251 249 249 249 248 248 248 249 251 254 256 259 259 260 262 263 265 266 268 270 272 274 277 280
204 200 219 216 208 209 206 202 205 205 204 206 205 202 202 201 200 205 212 215 217 216 216 225 227 225 227 230 229 228 228 227 226 225 227 230 230 232 235 236 238 241 242 243 243 242 240 238 239 241 240 240 243 243 240 239 238 238 240 245 248 250 250 250 250 248 248 247 248 248 250 252 254 256 258 260 262 264 266 267 268 270 273 275 279 282
197 196 219 215 207 208 205 202 205 207 206 203 200 201 204 204 203 206 213 215 216 217 214 219 230 227 227 232 232 230 229 228 227 227 228 231 233 233 235 237 238 240 243 246 244 240 237 236 235 236 238 240 243 242 236 234 236 238 240 244 247 247 248 249 248 248 249 248 249 249 249 251 252 255 257 259 261 264 266 267 268 271 273 276 280 283
192 197 218 213 204 206 204 204 207 208 207 204 200 201 204 206 205 207 216 217 215 218 218 217 220 225 226 231 233 231 229 229 229 228 229 232 234 234 235 237 239 240 242 242 240 237 234 233 232 234 237 240 242 242 236 233 235 237 239 242 244 245 247 246 244 246 247 248 249 248 249 251 252 254 256 258 260 262 264 266 268 271 274 278 281 285
192 197 214 212 205 205 204 205 209 210 208 207 205 202 201 205 206 207 212 215 211 212 221 223 223 227 230 230 233 233 230 230 231 231 231 232 233 235 236 238 240 239 238 238 238 237 235 232 230 232 234 237 239 240 239 237 235 236 238 239 240 244 247 246 244 244 246 247 248 248 249 250 251 252 253 255 257 259 262 265 267 271 275 279 283 286
196 201 211 211 205 204 205 206 208 209 207 208 210 207 203 204 207 209 210 212 212 206 212 223 225 229 233 233 234 235 232 230 230 232 233 232 233 236 238 239 240 237 236 237 237 237 234 230 228 229 234 239 240 239 238 238 236 238 241 239 239 244 247 246 246 247 247 247 247 247 248 248 248 250 252 254 256 259 262 265 268 272 276 279 282 284
199 202 207 205 199 200 207 209 208 206 206 209 211 209 207 208 210 212 208 211 217 214 211 214 217 223 232 235 235 235 235 233 232 232 234 234 235 238 239 239 239 237 236 237 237 235 232 228 228 232 238 243 244 242 240 239 239 240 241 241 242 246 249 249 248 249 249 247 246 247 247 248 248 250 252 255 257 260 263 266 269 272 275 278 280 283
202 199 201 198 191 194 202 207 206 204 206 211 210 207 208 211 213 214 211 210 216 216 214 215 217 221 229 234 235 235 235 236 235 233 235 236 236 237 238 237 238 237 236 236 234 231 230 230 231 234 240 245 248 247 244 243 243 243 241 240 242 248 253 254 249 245 244 244 245 248 249 249 250 251 254 256 259 263 265 268 270 272 274 276 279 282
206 200 200 198 196 200 203 205 205 205 207 211 210 208 209 210 213 216 215 214 215 215 215 216 220 226 231 233 234 234 234 235 235 234 235 236 236 236 236 236 237 238 237 234 230 229 229 230 230 233 238 243 247 249 248 246 245 244 242 242 243 248 255 257 251 245 243 243 246 247 248 251 253 255 258 260 262 264 266 268 270 271 273 275 278 282
207 202 203 205 207 208 206 206 206 205 208 210 209 209 210 211 213 216 218 217 217 218 219 218 218 225 232 233 231 232 232 233 234 235 236 236 234 233 234 235 236 236 234 231 229 230 230 227 228 233 237 241 245 249 250 247 244 243 244 245 246 249 253 256 255 251 245 242 243 244 247 251 254 257 261 262 264 265 266 268 269 271 273 275 277 280
205 202 202 206 208 205 203 209 210 208 210 212 211 210 210 211 213 216 218 217 216 218 222 224 221 222 229 235 235 236 236 235 235 235 234 233 231 230 231 232 233 231 228 228 229 231 231 229 230 236 240 245 251 254 253 250 245 243 242 244 247 249 249 249 250 250 245 242 242 246 250 254 257 260 262 263 265 266 267 268 270 271 272 274 276 279
203 202 200 200 202 200 201 213 215 210 211 213 213 212 212 211 212 215 217 215 214 217 219 224 226 223 227 235 237 237 238 235 231 229 230 230 228 228 227 228 228 226 226 228 228 230 231 232 234 239 243 248 254 259 256 250 245 243 242 243 246 246 245 244 245 246 247 248 250 253 255 257 259 261 262 263 265 266 268 270 270 271 271 273 276 278
200 203 201 197 198 200 201 210 214 210 210 213 213 213 213 213 213 215 217 213 213 215 211 210 219 222 225 232 234 235 238 236 228 225 226 227 226 225 223 223 223 223 224 226 228 229 230 232 235 236 238 243 251 258 255 247 241 241 242 242 241 241 243 245 244 245 248 250 252 253 254 255 258 260 262 264 265 267 268 269 269 270 271 273 275 277
198 203 202 198 199 199 194 198 208 209 209 211 213 214 214 216 217 219 220 217 215 217 214 212 215 218 220 224 228 231 234 233 227 223 222 224 224 223 221 219 218 220 223 225 227 229 229 232 236 237 238 243 248 248 244 237 234 236 237 238 238 241 244 244 244 246 249 248 248 249 251 253 256 260 263 266 267 268 268 268 269 270 271 273 275 277
198 202 201 197 200 202 200 204 212 214 212 211 213 213 213 215 218 220 222 222 222 224 224 222 221 223 224 224 225 227 229 230 228 225 223 222 221 221 220 218 216 217 221 224 227 231 232 235 238 238 238 242 244 242 238 233 234 238 237 237 241 244 243 242 244 246 246 245 246 249 253 257 260 263 266 268 268 268 268 269 269 270 271 273 275 277
199 205 203 197 197 202 206 210 214 216 215 212 211 211 212 213 216 218 220 221 223 225 227 225 223 224 226 226 225 227 230 233 235 233 229 224 220 220 219 218 216 216 219 224 228 233 236 239 241 240 242 244 243 241 238 232 232 239 242 242 246 249 244 240 242 244 244 246 249 253 258 262 266 268 268 268 268 268 269 269 269 270 271 273 275 278
198 204 206 202 201 200 202 205 209 213 216 214 212 211 212 213 215 218 219 219 221 222 223 224 222 223 225 225 224 224 227 230 232 232 230 225 220 217 216 217 217 216 217 223 229 233 236 240 244 246 249 245 237 230 228 228 235 245 251 254 254 253 248 243 243 245 247 250 254 259 263 265 267 268 268 267 267 267 268 269 269 270 271 273 276 279
199 198 202 206 204 202 202 205 208 211 213 215 214 213 214 215 217 219 219 220 222 221 222 223 222 222 225 226 225 222 221 223 224 225 226 224 219 216 214 214 216 216 217 221 227 232 235 239 242 243 241 234 225 219 222 233 247 254 258 262 260 255 252 249 250 252 255 259 262 264 265 265 266 267 267 267 268 267 267 268 269 270 271 273 276 279
201 199 201 204 202 200 203 206 208 211 213 215 215 214 214 215 217 220 221 222 223 222 221 223 223 224 226 228 227 223 221 221 220 220 221 221 218 215 212 211 214 217 219 222 226 231 233 236 239 238 237 239 242 243 246 252 258 259 261 263 262 260 259 258 258 260 262 264 265 265 265 265 266 268 271 272 271 268 266 266 267 269 271 273 276 280
196 200 204 207 203 199 203 208 210 213 217 219 218 216 214 215 216 221 223 225 227 227 225 225 226 226 226 228 228 226 223 222 220 219 220 220 217 214 210 208 212 217 220 223 226 228 231 235 240 243 248 256 263 266 266 263 261 261 260 260 260 261 262 263 263 264 264 265 266 266 266 267 269 272 274 274 271 267 265 266 267 268 271 274 279 283
192 194 201 210 207 200 201 207 210 214 218 221 220 217 216 216 216 218 222 224 226 227 227 226 227 227 227 227 229 228 226 224 220 217 217 219 219 217 214 213 215 218 221 224 226 227 229 235 242 246 249 254 259 262 264 262 261 259 258 259 260 261 262 262 263 264 265 266 267 268 269 271 273 274 273 270 268 266 264 265 266 269 272 277 280 283
195 191 195 205 208 204 203 205 209 214 217 218 218 216 216 218 218 218 221 222 222 223 224 224 225 227 227 226 227 228 227 226 222 217 215 216 219 220 220 220 221 223 226 229 230 230 233 238 244 246 246 248 251 255 258 259 259 259 258 259 260 261 262 263 264 265 266 267 268 270 272 274 275 275 273 269 267 265 263 264 266 270 274 278 281 285
196 195 195 198 199 200 203 204 208 217 218 216 215 213 214 217 218 217 219 222 223 223 223 224 225 225 224 223 223 224 223 224 221 216 213 213 214 216 217 219 222 225 229 231 230 230 234 238 240 241 243 247 251 255 257 259 260 261 262 262 262 263 264 266 267 268 268 269 270 271 272 274 276 277 274 269 266 265 264 265 269 273 277 280 284 286
194 197 196 196 196 197 199 199 205 215 219 218 216 212 212 215 216 216 217 219 221 222 222 224 225 225 223 221 219 219 221 222 221 217 215 213 212 213 214 215 219 222 223 222 219 222 228 232 234 237 243 249 253 256 259 261 263 265 267 266 266 266 268 269 270 270 271 271 269 267 268 272 276 275 271 267 265 265 267 269 273 278 281 283 285 285
196 197 196 195 195 197 198 197 204 213 214 214 213 211 211 214 216 217 218 218 218 220 220 221 221 222 221 217 213 214 218 220 219 218 217 216 213 213 215 217 221 225 225 223 222 223 227 231 236 242 247 251 255 257 258 262 265 268 269 268 269 269 271 273 273 274 275 273 269 263 261 263 267 267 266 266 267 270 273 277 280 282 283 283 284 285
198 199 198 196 195 197 199 201 206 211 210 210 213 211 210 210 213 216 217 216 216 217 219 219 218 216 215 212 211 213 215 215 215 216 217 217 216 214 214 218 223 226 227 228 230 232 235 239 243 247 250 253 256 257 260 263 266 268 268 269 269 270 272 275 276 277 277 274 270 265 260 260 264 267 270 273 276 280 282 283 283 283 282 283 285 287
198 197 197 197 197 200 202 204 208 210 207 208 212 212 209 210 210 212 214 215 215 216 219 220 219 216 214 212 213 214 214 214 216 218 219 220 221 220 218 219 221 222 223 226 231 237 242 246 249 252 254 257 258 259 261 263 264 265 266 268 269 270 272 275 277 278 277 274 272 270 268 269 272 274 277 279 281 283 283 281 281 282 283 285 287 288
198 194 193 195 198 202 205 206 208 210 209 210 211 211 210 210 209 209 211 213 213 213 216 218 218 218 217 215 214 215 215 215 217 218 220 222 224 224 221 220 221 224 226 229 234 241 246 250 254 256 257 257 258 259 259 260 261 262 264 267 269 270 272 275 276 276 275 273 272 272 272 274 275 276 278 279 278 278 278 279 281 283 285 287 287 288
196 193 192 195 199 202 207 208 209 211 212 212 211 210 210 209 209 210 211 213 213 213 214 215 214 215 217 217 215 215 216 217 218 219 221 222 223 224 223 222 224 226 227 230 236 242 247 250 254 256 255 255 257 257 257 257 257 259 263 267 268 268 270 271 271 270 269 269 271 273 275 276 277 277 276 276 276 277 278 280 283 284 286 286 286 287
195 192 192 196 200 203 207 209 208 210 214 214 211 210 209 209 210 212 212 212 212 212 213 212 209 210 214 216 214 213 214 215 218 220 221 222 222 224 225 226 225 225 227 232 238 242 245 249 252 253 253 254 255 256 256 255 255 258 262 264 264 264 264 264 263 263 264 266 271 274 276 276 275 274 274 274 275 277 279 281 283 284 285 285 286 287
197 193 195 200 203 204 208 209 208 210 214 214 212 210 209 208 211 213 211 210 209 209 210 210 207 206 208 207 206 207 208 210 213 217 220 221 222 224 225 224 223 224 228 233 237 240 245 249 251 251 251 252 253 254 253 253 254 257 260 260 259 257 256 256 256 258 261 267 271 274 274 273 272 272 274 275 276 278 280 282 283 283 283 284 284 287
202 199 200 204 205 207 211 211 210 211 213 213 211 210 208 207 208 209 209 211 210 209 210 211 208 205 203 201 202 205 206 208 210 214 216 219 221 222 221 221 223 226 230 234 237 241 245 247 247 247 248 249 250 250 250 250 252 255 256 255 252 250 248 249 252 257 262 267 271 272 271 270 271 273 275 275 276 278 280 281 281 281 281 282 285 290
208 205 203 204 206 210 212 211 210 212 212 210 209 208 208 208 207 206 206 210 212 211 211 211 211 209 207 206 206 208 208 209 211 214 215 218 219 219 218 219 222 225 229 233 236 240 243 244 243 244 246 248 248 248 248 249 250 251 252 250 246 245 246 248 252 258 263 267 269 269 269 270 273 274 275 275 277 279 280 280 280 281 282 284 288 293
213 209 206 207 210 212 211 209 211 212 211 209 208 208 208 208 207 205 206 208 211 212 213 213 213 213 212 211 210 211 211 211 213 215 215 215 216 215 215 217 221 224 228 234 238 242 243 242 240 241 244 246 248 247 247 246 247 249 249 247 245 244 246 249 255 260 264 268 269 269 270 273 275 276 276 277 278 279 280 280 281 282 285 288 291 295
Height
5697 5700 5702 5706 5711 5716 5720 5726 5731 5736 5741 5745 5748 5752 5758 5759 5760 5766 5766 5764 5769 5772 5772 5775 5778 5780 5784 5783 5781 5783 5786 5788 5785 5781 5786 5787 5785 5786 5787 5789 5793 5795 5797 5800 5804 5808 5809 5811 5814 5816 5818 5820 5821 5822 5824 5825 5826 5828 5829 5831 5832 5832 5831 5831 5830 5828 5828 5828 5827 5826 5826 5825 5824 5824 5826 5827 5828 5828 5828 5829 5830 5830 5831 5831 5831 5831
5691 5694 5699 5705 5710 5714 5719 5723 5727 5733 5737 5741 5745 5748 5753 5755 5757 5765 5763 5759 5766 5770 5770 5773 5775 5777 5780 5779 5779 5781 5782 5783 5783 5781 5783 5782 5781 5783 5786 5790 5792 5793 5796 5798 5801 5804 5806 5810 5812 5813 5815 5817 5819 5820 5823 5824 5826 5827 5828 5829 5829 5829 5829 5827 5825 5824 5824 5824 5824 5823 5823 5823 5822 5822 5823 5825 5826 5826 5826 5827 5828 5828 5829 5829 5830 5830
5686 5690 5696 5702 5707 5711 5715 5719 5723 5730 5733 5735 5739 5743 5749 5752 5757 5762 5758 5756 5764 5768 5768 5770 5772 5774 5777 5777 5777 5778 5779 5780 5781 5779 5777 5777 5780 5785 5788 5791 5792 5792 5794 5797 5799 5801 5805 5808 5810 5811 5813 5814 5816 5818 5820 5822 5824 5825 5827 5827 5827 5826 5823 5821 5820 5821 5822 5823 5823 5824 5824 5824 5822 5821 5822 5824 5825 5825 5825 5825 5826 5827 5827 5828 5828 5828
5683 5688 5693 5698 5703 5706 5710 5714 5720 5725 5727 5730 5735 5740 5747 5751 5756 5760 5755 5753 5761 5765 5766 5768 5769 5771 5773 5774 5774 5775 5777 5778 5776 5773 5773 5775 5781 5787 5790 5792 5794 5793 5793 5794 5797 5799 5803 5806 5807 5809 5810 5812 5814 5816 5817 5819 5821 5824 5825 5825 5824 5821 5817 5817 5819 5820 5822 5823 5824 5824 5825 5825 5824 5821 5820 5823 5824 5824 5824 5824 5825 5825 5826 5826 5826 5826
5681 5687 5690 5694 5699 5703 5706 5710 5716 5720 5721 5727 5733 5740 5747 5749 5753 5758 5753 5750 5759 5763 5764 5765 5766 5767 5769 5770 5771 5772 5775 5775 5770 5768 5772 5776 5781 5786 5787 5788 5791 5793 5793 5794 5795 5797 5800 5803 5805 5807 5809 5810 5812 5814 5815 5817 5819 5821 5822 5822 5819 5814 5814 5817 5819 5820 5821 5822 5821 5822 5822 5823 5824 5821 5819 5821 5823 5823 5823 5823 5823 5824 5824 5825 5825 5825
5678 5682 5687 5691 5696 5699 5701 5706 5713 5715 5718 5725 5731 5737 5743 5746 5750 5753 5749 5749 5756 5759 5759 5761 5763 5764 5766 5767 5769 5770 5771 5770 5767 5767 5771 5777 5782 5785 5785 5785 5786 5789 5790 5792 5795 5797 5798 5801 5803 5805 5807 5809 5810 5812 5813 5814 5816 5818 5818 5818 5815 5813 5816 5819 5819 5820 5820 5819 5818 5818 5819 5820 5821 5820 5819 5820 5821 5821 5822 5822 5822 5823 5823 5823 5823 5823
5673 5677 5683 5687 5692 5694 5697 5703 5709 5711 5717 5724 5728 5733 5738 5743 5747 5747 5745 5747 5753 5756 5757 5759 5762 5764 5765 5765 5766 5768 5768 5766 5766 5766 5768 5774 5782 5784 5783 5784 5785 5786 5787 5790 5794 5796 5797 5799 5801 5804 5806 5807 5808 5809 5810 5811 5813 5813 5814 5814 5812 5814 5817 5817 5818 5818 5817 5816 5816 5816 5817 5818 5819 5819 5818 5818 5820 5820 5821 5821 5821 5822 5822 5822 5822 5822
5670 5674 5678 5683 5686 5689 5694 5700 5705 5708 5716 5721 5725 5730 5734 5738 5742 5742 5742 5745 5751 5755 5756 5756 5760 5763 5764 5763 5763 5766 5767 5764 5765 5767 5766 5771 5778 5780 5781 5782 5784 5785 5786 5789 5793 5793 5794 5797 5800 5802 5804 5805 5806 5806 5807 5808 5809 5810 5811 5811 5812 5814 5814 5814 5814 5814 5814 5814 5814 5815 5815 5817 5817 5817 5816 5816 5818 5819 5819 5819 5820 5820 5820 5820 5820 5820
5667 5670 5674 5677 5679 5684 5691 5698 5702 5707 5714 5719 5721 5727 5731 5733 5737 5739 5740 5744 5749 5753 5753 5753 5756 5759 5761 5762 5761 5763 5764 5762 5763 5766 5767 5770 5773 5776 5778 5780 5782 5782 5784 5787 5789 5791 5792 5794 5797 5799 5801 5802 5803 5803 5804 5805 5807 5808 5809 5809 5811 5813 5812 5812 5811 5812 5813 5812 5811 5813 5814 5815 5815 5814 5813 5814 5815 5816 5817 5817 5818 5818 5818 5819 5819 5819
5665 5667 5668 5671 5676 5684 5691 5695 5699 5703 5710 5717 5718 5722 5727 5729 5733 5735 5737 5742 5747 5749 5750 5750 5752 5755 5758 5760 5759 5758 5760 5761 5762 5763 5765 5768 5772 5774 5776 5778 5779 5779 5780 5783 5786 5788 5790 5791 5794 5797 5798 5800 5800 5801 5802 5804 5805 5806 5806 5807 5808 5810 5810 5810 5810 5811 5811 5809 5808 5810 5812 5813 5813 5811 5811 5813 5814 5815 5815 5816 5816 5816 5817 5817 5817 5817
5661 5662 5662 5668 5677 5684 5689 5692 5695 5700 5708 5713 5712 5716 5722 5726 5731 5732 5735 5741 5743 5744 5746 5747 5749 5752 5755 5758 5757 5756 5759 5762 5762 5762 5762 5764 5768 5772 5775 5776 5777 5777 5778 5780 5783 5785 5787 5788 5791 5794 5795 5797 5798 5799 5800 5802 5803 5804 5804 5805 5806 5808 5808 5808 5808 5809 5810 5808 5808 5809 5810 5811 5811 5810 5811 5812 5813 5814 5814 5814 5815 5815 5815 5815 5815 5816
5654 5656 5658 5666 5675 5680 5684 5688 5691 5697 5705 5707 5705 5711 5719 5723 5727 5729 5732 5736 5737 5739 5742 5744 5747 5749 5752 5756 5756 5754 5758 5761 5762 5763 5762 5761 5763 5768 5772 5774 5776 5777 5777 5778 5780 5782 5784 5786 5788 5791 5793 5794 5795 5797 5798 5800 5801 5802 5802 5803 5804 5805 5807 5807 5807 5807 5808 5808 5808 5808 5808 5809 5809 5810 5811 5811 5812 5813 5813 5813 5813 5814 5814 5814 5814 5814
5648 5651 5655 5663 5671 5675 5678 5683 5686 5692 5701 5700 5700 5709 5717 5720 5723 5725 5728 5731 5733 5736 5738 5742 5746 5747 5749 5753 5756 5754 5755 5758 5760 5762 5763 5761 5761 5763 5766 5771 5775 5775 5775 5775 5777 5780 5782 5784 5785 5788 5790 5791 5793 5794 5795 5797 5799 5799 5800 5800 5801 5803 5804 5805 5805 5805 5806 5805 5805 5805 5806 5807 5808 5809 5810 5810 5811 5811 5812 5812 5812 5812 5812 5813 5813 5812
5644 5647 5652 5660 5666 5669 5674 5679 5680 5687 5695 5694 5697 5708 5713 5715 5718 5720 5723 5727 5729 5733 5736 5740 5743 5745 5746 5749 5753 5753 5751 5754 5758 5760 5761 5762 5762 5761 5760 5765 5770 5771 5772 5773 5775 5778 5780 5781 5782 5784 5787 5789 5791 5791 5792 5793 5795 5796 5796 5797 5799 5800 5801 5803 5802 5802 5802 5802 5803 5803 5805 5806 5807 5808 5808 5809 5809 5810 5810 5810 5810 5811 5811 5811 5811 5810
5641 5645 5650 5657 5662 5665 5671 5675 5677 5686 5693 5691 5697 5708 5710 5713 5715 5717 5721 5724 5726 5730 5734 5737 5739 5741 5744 5745 5748 5748 5746 5752 5757 5758 5760 5761 5762 5762 5760 5761 5765 5767 5769 5771 5773 5776 5777 5778 5779 5781 5784 5787 5788 5788 5789 5790 5792 5792 5792 5794 5796 5798 5799 5799 5799 5799 5799 5800 5801 5802 5803 5804 5805 5806 5807 5807 5808 5808 5808 5808 5809 5809 5809 5809 5809 5808
5640 5645 5651 5656 5659 5663 5667 5671 5676 5686 5690 5689 5696 5704 5706 5711 5715 5716 5720 5723 5725 5729 5731 5732 5735 5738 5739 5740 5742 5743 5745 5752 5755 5757 5758 5759 5761 5762 5761 5762 5763 5765 5767 5768 5771 5773 5774 5776 5777 5779 5782 5785 5787 5787 5788 5790 5791 5789 5789 5791 5793 5795 5796 5796 5796 5797 5798 5798 5799 5800 5801 5802 5803 5804 5804 5805 5805 5806 5806 5806 5807 5807 5807 5807 5807 5806
5639 5645 5648 5652 5657 5661 5664 5670 5676 5683 5685 5687 5693 5699 5702 5710 5713 5714 5717 5720 5722 5726 5727 5728 5732 5733 5734 5737 5740 5742 5745 5750 5753 5755 5757 5758 5760 5760 5761 5763 5763 5764 5765 5765 5767 5770 5772 5773 5775 5778 5781 5785 5786 5787 5789 5790 5789 5789 5789 5789 5790 5791 5792 5793 5794 5795 5796 5796 5797 5798 5799 5800 5801 5802 5802 5803 5803 5803 5804 5804 5804 5805 5805 5805 5804 5804
5640 5645 5646 5649 5655 5658 5663 5670 5675 5678 5681 5684 5691 5697 5702 5707 5710 5712 5715 5717 5719 5723 5725 5725 5727 5730 5732 5735 5737 5739 5744 5748 5751 5754 5755 5756 5758 5759 5760 5762 5762 5762 5762 5762 5764 5768 5770 5773 5775 5778 5781 5783 5783 5784 5786 5787 5787 5788 5788 5788 5788 5789 5790 5791 5792 5793 5794 5794 5795 5796 5797 5798 5799 5799 5800 5800 5801 5801 5802 5802 5802 5802 5802 5802 5802 5801
5639 5645 5643 5646 5652 5655 5661 5667 5670 5673 5678 5683 5690 5696 5699 5702 5705 5709 5711 5712 5714 5718 5722 5723 5724 5728 5731 5731 5733 5737 5742 5746 5749 5752 5753 5754 5756 5758 5759 5760 5760 5761 5761 5762 5764 5767 5770 5773 5775 5776 5777 5779 5779 5781 5784 5786 5786 5786 5787 5788 5788 5788 5789 5790 5791 5792 5793 5793 5794 5794 5795 5796 5797 5797 5798 5798 5799 5799 5800 5800 5800 5800 5800 5799 5799 5798
5638 5642 5640 5644 5649 5652 5658 5663 5665 5669 5674 5680 5686 5691 5694 5698 5702 5706 5707 5708 5711 5715 5719 5721 5722 5726 5729 5729 5730 5735 5740 5743 5746 5749 5750 5752 5754 5755 5756 5757 5758 5759 5761 5762 5764 5765 5768 5770 5771 5772 5774 5776 5777 5779 5782 5783 5783 5784 5785 5786 5787 5788 5789 5789 5790 5791 5791 5792 5792 5793 5793 5794 5794 5795 5795 5796 5796 5797 5797 5797 5797 5797 5797 5797 5796 5796
5635 5639 5638 5640 5645 5649 5654 5658 5662 5666 5671 5676 5681 5686 5691 5695 5699 5703 5704 5705 5709 5713 5716 5719 5721 5724 5727 5726 5726 5731 5736 5740 5743 5746 5748 5749 5751 5752 5753 5754 5756 5758 5759 5760 5761 5763 5765 5766 5768 5770 5772 5773 5774 5776 5778 5779 5780 5781 5782 5784 5785 5786 5787 5787 5788 5789 5790 5790 5791 5791 5791 5792 5792 5793 5793 5793 5794 5794 5794 5795 5795 5795 5794 5794 5793 5793
5632 5635 5635 5638 5643 5647 5652 5657 5661 5666 5672 5677 5680 5682 5687 5691 5694 5697 5699 5702 5707 5712 5714 5716 5720 5722 5722 5722 5723 5728 5733 5737 5740 5743 5745 5746 5747 5749 5751 5752 5755 5756 5758 5758 5759 5761 5763 5765 5766 5768 5769 5770 5771 5772 5774 5776 5777 5777 5779 5781 5783 5784 5785 5785 5786 5787 5787 5788 5788 5789 5789 5789 5790 5790 5790 5791 5791 5791 5791 5792 5792 5792 5791 5791 5790 5790
5629 5632 5633 5637 5643 5648 5652 5656 5660 5666 5672 5675 5677 5680 5685 5688 5690 5693 5698 5701 5705 5709 5713 5715 5718 5718 5717 5719 5722 5726 5730 5734 5737 5739 5741 5742 5743 5745 5748 5751 5752 5754 5755 5756 5757 5759 5761 5763 5764 5764 5766 5767 5768 5769 5771 5772 5773 5775 5776 5778 5780 5782 5781 5782 5783 5785 5785 5786 5786 5786 5786 5787 5787 5788 5788 5788 5789 5789 5788 5788 5789 5788 5788 5788 5787 5787
5626 5629 5633 5637 5643 5648 5652 5654 5658 5664 5668 5669 5672 5679 5684 5686 5688 5691 5696 5701 5702 5706 5710 5713 5713 5713 5714 5716 5719 5723 5727 5729 5733 5735 5736 5738 5741 5743 5746 5748 5749 5751 5753 5754 5755 5757 5759 5759 5761 5762 5764 5765 5765 5766 5767 5768 5770 5772 5774 5775 5778 5779 5778 5780 5781 5782 5783 5783 5783 5783 5784 5784 5785 5785 5785 5786 5786 5786 5786 5785 5785 5785 5785 5785 5784 5784
5623 5627 5631 5636 5640 5644 5647 5650 5653 5658 5662 5664 5669 5676 5680 5682 5685 5688 5693 5697 5700 5703 5706 5709 5710 5710 5711 5713 5716 5720 5724 5726 5730 5731 5732 5736 5739 5741 5743 5745 5747 5748 5750 5752 5754 5755 5755 5756 5758 5760 5762 5762 5762 5763 5764 5765 5766 5768 5771 5772 5775 5776 5776 5777 5778 5779 5779 5780 5780 5781 5781 5782 5782 5782 5783 5783 5783 5783 5783 5783 5783 5782 5782 5782 5781 5781
5622 5627 5631 5635 5637 5639 5642 5645 5649 5654 5657 5661 5666 5671 5675 5678 5682 5685 5689 5693 5696 5699 5702 5705 5708 5708 5709 5710 5713 5717 5721 5724 5726 5727 5730 5734 5737 5738 5741 5742 5744 5746 5748 5750 5751 5751 5752 5754 5756 5758 5759 5759 5759 5759 5761 5762 5764 5766 5768 5770 5772 5773 5774 5774 5774 5775 5776 5777 5778 5778 5779 5779 5780 5780 5780 5780 5780 5780 5780 5780 5780 5779 5779 5779 5778 5778
5621 5627 5631 5635 5637 5640 5644 5647 5649 5653 5655 5658 5663 5668 5671 5676 5680 5682 5685 5689 5693 5697 5698 5702 5705 5706 5706 5708 5711 5714 5718 5722 5723 5725 5728 5732 5733 5736 5738 5739 5741 5744 5745 5747 5747 5748 5750 5752 5754 5755 5755 5756 5756 5757 5759 5760 5761 5763 5766 5767 5768 5770 5771 5771 5771 5771 5773 5774 5775 5775 5776 5777 5777 5777 5777 5777 5777 5777 5777 5777 5776 5776 5776 5775 5775 5774
5620 5626 5630 5634 5637 5642 5646 5647 5648 5651 5654 5658 5662 5666 5670 5674 5677 5679 5681 5686 5691 5694 5695 5699 5703 5704 5704 5706 5709 5712 5715 5718 5721 5724 5726 5728 5730 5733 5735 5737 5739 5741 5742 5743 5744 5746 5747 5749 5750 5752 5752 5753 5754 5755 5757 5758 5759 5761 5763 5764 5765 5766 5768 5768 5768 5769 5769 5770 5772 5772 5773 5773 5773 5773 5774 5774 5774 5774 5773 5773 5773 5773 5773 5772 5771 5771
5620 5624 5629 5633 5636 5641 5645 5645 5646 5650 5654 5657 5661 5664 5667 5671 5673 5675 5678 5683 5688 5690 5694 5698 5700 5702 5703 5704 5707 5709 5711 5714 5718 5721 5723 5725 5727 5730 5732 5734 5736 5738 5739 5741 5742 5743 5744 5746 5748 5749 5750 5751 5752 5753 5753 5754 5755 5757 5759 5761 5762 5763 5765 5766 5766 5766 5767 5768 5769 5769 5770 5770 5770 5770 5770 5770 5770 5770 5770 5770 5770 5769 5769 5768 5768 5767
5620 5623 5627 5631 5635 5638 5643 5645 5647 5649 5651 5655 5658 5661 5665 5668 5670 5672 5675 5680 5684 5686 5691 5695 5697 5699 5701 5702 5704 5706 5708 5711 5714 5718 5720 5722 5724 5727 5729 5732 5733 5735 5737 5738 5739 5741 5742 5743 5744 5746 5747 5749 5749 5750 5750 5750 5752 5754 5755 5757 5758 5760 5761 5762 5763 5764 5764 5765 5766 5766 5766 5767 5767 5767 5767 5767 5767 5767 5766 5766 5766 5766 5765 5765 5764 5764
5618 5621 5626 5630 5633 5636 5641 5644 5644 5645 5648 5652 5655 5660 5664 5667 5670 5672 5674 5678 5681 5683 5686 5690 5693 5696 5697 5698 5700 5703 5706 5709 5712 5715 5717 5720 5722 5724 5726 5729 5731 5733 5734 5735 5737 5738 5740 5740 5741 5744 5746 5747 5747 5748 5748 5748 5749 5751 5752 5753 5755 5757 5758 5759 5760 5761 5761 5762 5763 5763 5763 5764 5764 5764 5764 5764 5764 5763 5763 5763 5762 5762 5762 5761 5761 5760
5617 5620 5623 5628 5631 5634 5637 5639 5640 5643 5646 5649 5653 5657 5661 5664 5667 5670 5672 5676 5679 5681 5685 5689 5692 5693 5694 5697 5700 5702 5705 5708 5710 5713 5715 5717 5719 5721 5724 5726 5728 5730 5732 5733 5735 5736 5737 5737 5740 5743 5744 5745 5746 5746 5746 5747 5748 5748 5750 5751 5752 5754 5755 5756 5757 5758 5759 5759 5760 5761 5761 5761 5761 5761 5761 5760 5760 5760 5759 5759 5759 5758 5758 5757 5757 5756
5616 5618 5622 5626 5629 5632 5635 5638 5640 5643 5645 5646 5649 5653 5657 5661 5664 5666 5669 5672 5676 5679 5682 5686 5690 5692 5693 5696 5699 5701 5704 5707 5709 5711 5713 5715 5717 5719 5722 5724 5725 5727 5729 5731 5732 5733 5735 5737 5739 5741 5742 5743 5744 5744 5744 5745 5746 5747 5748 5749 5751 5752 5753 5754 5755 5756 5757 5757 5757 5758 5757 5757 5757 5757 5757 5756 5756 5756 5756 5755 5755 5755 5754 5754 5753 5752
5615 5618 5622 5625 5628 5631 5634 5637 5639 5641 5642 5643 5647 5651 5654 5657 5660 5663 5666 5669 5671 5675 5679 5682 5687 5689 5690 5693 5696 5699 5702 5704 5707 5708 5710 5712 5715 5717 5719 5721 5723 5725 5727 5729 5730 5731 5733 5735 5736 5738 5739 5740 5741 5740 5741 5743 5744 5745 5746 5747 5748 5749 5750 5752 5752 5753 5754 5754 5754 5754 5754 5754 5753 5753 5753 5752 5752 5752 5752 5751 5751 5751 5750 5749 5749 5748
5614 5618 5621 5624 5627 5631 5634 5636 5637 5638 5640 5642 5646 5649 5653 5656 5658 5661 5663 5666 5668 5672 5676 5679 5683 5685 5686 5689 5693 5696 5698 5701 5703 5705 5708 5710 5712 5715 5716 5719 5722 5724 5724 5726 5727 5729 5730 5732 5733 5734 5736 5737 5738 5738 5739 5741 5742 5743 5744 5745 5746 5747 5748 5748 5749 5749 5750 5750 5750 5750 5750 5750 5749 5749 5749 5749 5748 5748 5748 5748 5747 5747 5746 5745 5745 5744
5615 5618 5621 5623 5626 5630 5632 5634 5636 5637 5638 5641 5643 5647 5650 5654 5657 5659 5661 5663 5665 5668 5673 5676 5680 5683 5684 5687 5691 5694 5696 5698 5700 5703 5705 5708 5710 5712 5714 5717 5719 5721 5722 5724 5725 5726 5728 5729 5730 5731 5732 5733 5735 5736 5737 5739 5740 5741 5742 5743 5743 5744 5744 5745 5745 5745 5745 5746 5746 5746 5746 5746 5745 5745 5745 5745 5745 5744 5744 5743 5743 5742 5742 5741 5740 5740
5614 5618 5620 5622 5625 5628 5631 5633 5635 5636 5638 5640 5642 5645 5649 5652 5654 5657 5660 5662 5664 5667 5671 5675 5678 5680 5682 5685 5688 5691 5694 5696 5698 5701 5703 5706 5708 5710 5712 5714 5716 5717 5720 5722 5723 5725 5727 5728 5728 5729 5730 5732 5733 5734 5735 5736 5737 5739 5740 5740 5740 5741 5741 5741 5741 5742 5742 5742 5742 5742 5742 5742 5741 5741 5741 5740 5740 5739 5739 5739 5739 5738 5737 5737 5736 5736
5613 5617 5620 5622 5624 5627 5629 5631 5633 5635 5636 5638 5640 5644 5647 5650 5653 5655 5657 5660 5662 5665 5670 5673 5675 5677 5679 5683 5686 5688 5691 5694 5696 5699 5702 5704 5706 5708 5710 5712 5714 5716 5718 5719 5721 5724 5725 5726 5727 5728 5729 5730 5731 5732 5733 5734 5735 5736 5736 5737 5737 5738 5738 5738 5738 5738 5738 5739 5738 5738 5738 5737 5737 5737 5736 5735 5735 5734 5734 5734 5734 5734 5733 5733 5732 5732
5612 5615 5619 5621 5623 5626 5627 5629 5632 5633 5634 5636 5639 5642 5645 5648 5650 5653 5655 5657 5659 5663 5666 5669 5672 5674 5677 5681 5684 5686 5689 5692 5694 5697 5700 5702 5704 5707 5708 5710 5713 5715 5716 5718 5720 5722 5723 5724 5725 5726 5727 5728 5730 5731 5731 5732 5733 5733 5734 5734 5735 5735 5735 5735 5735 5735 5735 5735 5735 5734 5734 5733 5732 5732 5731 5731 5730 5730 5730 5730 5730 5730 5730 5729 5729 5728
5611 5614 5616 5618 5621 5624 5626 5628 5630 5631 5632 5634 5637 5639 5642 5645 5648 5650 5652 5655 5657 5661 5664 5667 5669 5671 5675 5679 5682 5685 5687 5689 5691 5694 5697 5699 5702 5704 5706 5708 5710 5712 5714 5716 5718 5720 5721 5722 5723 5724 5725 5726 5727 5728 5729 5729 5730 5731 5731 5732 5732 5732 5732 5732 5732 5732 5732 5731 5731 5730 5730 5729 5728 5728 5727 5727 5727 5727 5727 5727 5727 5727 5727 5726 5725 5724
5609 5611 5614 5617 5620 5622 5624 5627 5628 5629 5631 5633 5635 5637 5640 5643 5645 5647 5649 5652 5655 5658 5661 5664 5667 5670 5673 5677 5681 5683 5684 5686 5688 5691 5693 5696 5699 5701 5703 5705 5707 5709 5711 5713 5715 5716 5718 5719 5720 5722 5723 5724 5724 5725 5726 5727 5727 5728 5728 5729 5729 5729 5729 5729 5729 5728 5728 5727 5727 5726 5726 5725 5725 5725 5724 5724 5724 5725 5725 5725 5724 5724 5723 5722 5722 5721
5608 5610 5613 5616 5619 5621 5623 5625 5626 5628 5629 5631 5633 5636 5638 5641 5643 5644 5647 5650 5653 5656 5659 5662 5664 5667 5671 5675 5678 5679 5681 5683 5686 5689 5691 5694 5696 5699 5701 5703 5704 5706 5708 5710 5712 5713 5715 5717 5718 5719 5720 5721 5722 5722 5723 5724 5724 5725 5725 5725 5725 5725 5725 5725 5724 5724 5723 5723 5722 5722 5722 5722 5722 5722 5722 5722 5722 5722 5722 5721 5721 5720 5720 5719 5719 5718
5608 5610 5613 5615 5617 5619 5621 5623 5624 5625 5627 5630 5632 5634 5636 5638 5640 5642 5645 5648 5651 5654 5656 5659 5661 5664 5667 5671 5673 5675 5678 5681 5683 5686 5689 5692 5694 5696 5698 5700 5702 5704 5706 5708 5709 5711 5713 5714 5715 5716 5717 5718 5719 5719 5720 5721 5721 5721 5722 5722 5722 5722 5722 5721 5721 5720 5720 5719 5719 5719 5719 5719 5720 5720 5720 5720 5719 5719 5719 5718 5718 5718 5717 5716 5716 5715
5607 5609 5612 5615 5617 5619 5620 5621 5622 5623 5626 5628 5630 5631 5633 5636 5638 5641 5644 5647 5649 5652 5654 5656 5659 5662 5664 5667 5670 5673 5676 5679 5681 5684 5687 5689 5691 5694 5696 5698 5700 5702 5704 5705 5707 5708 5710 5711 5712 5713 5714 5715 5715 5716 5717 5717 5718 5718 5718 5719 5719 5719 5718 5718 5718 5717 5717 5717 5717 5717 5717 5717 5718 5718 5717 5717 5717 5716 5716 5716 5715 5715 5715 5714 5713 5711
5605 5607 5610 5613 5615 5617 5619 5620 5621 5623 5625 5626 5627 5629 5631 5633 5636 5639 5642 5644 5647 5649 5651 5653 5656 5659 5661 5664 5666 5670 5673 5676 5679 5682 5684 5687 5689 5692 5694 5696 5697 5699 5701 5702 5704 5705 5706 5708 5709 5710 5711 5711 5712 5713 5714 5714 5715 5715 5715 5716 5716 5715 5715 5715 5715 5715 5714 5714 5715 5715 5715 5715 5715 5715 5715 5714 5714 5714 5714 5713 5713 5712 5712 5711 5710 5708
5605 5606 5608 5610 5612 5614 5616 5618 5620 5621 5623 5624 5625 5627 5630 5632 5634 5637 5639 5642 5645 5647 5649 5651 5654 5656 5659 5661 5664 5667 5670 5674 5676 5679 5682 5684 5687 5689 5691 5693 5694 5696 5698 5700 5701 5703 5704 5705 5706 5706 5707 5708 5709 5710 5711 5711 5712 5712 5713 5713 5713 5713 5713 5713 5713 5712 5712 5713 5713 5713 5713 5713 5713 5713 5712 5712 5712 5711 5711 5711 5710 5709 5709 5708 5706 5705
5604 5605 5607 5608 5610 5612 5614 5616 5618 5620 5621 5622 5624 5626 5628 5631 5633 5635 5637 5640 5643 5645 5647 5649 5652 5654 5657 5659 5662 5665 5668 5671 5673 5676 5679 5681 5683 5686 5688 5690 5692 5694 5695 5697 5699 5700 5701 5702 5703 5703 5704 5705 5706 5707 5707 5708 5709 5710 5710 5710 5710 5710 5710 5710 5710 5711 5711 5711 5711 5711 5711 5711 5711 5710 5710 5709 5709 5709 5708 5708 5707 5706 5706 5705 5703 5702
5604 5605 5606 5608 5609 5611 5612 5614 5616 5618 5619 5621 5623 5625 5627 5629 5631 5633 5636 5638 5641 5643 5645 5647 5650 5652 5655 5658 5660 5663 5665 5668 5670 5673 5675 5678 5680 5682 5685 5687 5689 5691 5693 5694 5696 5697 5698 5699 5700 5701 5702 5702 5703 5704 5704 5705 5706 5707 5707 5707 5707 5707 5708 5708 5708 5709 5709 5709 5709 5709 5709 5709 5708 5708 5707 5707 5707 5706 5706 5705 5704 5704 5703 5702 5701 5700
5603 5604 5605 5607 5608 5609 5610 5612 5614 5616 5617 5619 5621 5623 5626 5628 5630 5632 5634 5637 5639 5641 5643 5646 5648 5651 5653 5655 5658 5660 5662 5665 5667 5669 5672 5675 5677 5679 5682 5684 5686 5688 5690 5692 5693 5695 5696 5696 5697 5698 5699 5699 5700 5701 5702 5703 5703 5704 5704 5704 5705 5705 5705 5705 5706 5706 5707 5707 5707 5707 5706 5706 5706 5705 5705 5704 5704 5703 5703 5702 5702 5701 5700 5699 5698 5697
5601 5602 5604 5606 5607 5607 5608 5609 5611 5612 5614 5616 5619 5621 5624 5626 5629 5631 5633 5635 5637 5639 5641 5644 5646 5649 5651 5653 5655 5658 5660 5662 5664 5666 5669 5671 5674 5677 5679 5681 5683 5685 5687 5689 5690 5692 5693 5694 5695 5695 5696 5697 5698 5698 5699 5700 5701 5701 5702 5702 5702 5703 5703 5703 5704 5704 5704 5704 5704 5704 5704 5704 5703 5703 5702 5702 5701 5701 5700 5700 5699 5698 5697 5696 5695 5693
5599 5601 5602 5603 5604 5605 5606 5607 5609 5610 5613 5615 5618 5620 5622 5624 5627 5629 5631 5633 5635 5637 5639 5641 5644 5646 5648 5651 5653 5655 5657 5660 5661 5664 5666 5669 5672 5674 5676 5678 5680 5682 5684 5686 5687 5689 5690 5691 5692 5693 5693 5694 5695 5696 5697 5698 5698 5699 5699 5700 5700 5700 5700 5701 5701 5701 5702 5702 5702 5701 5701 5701 5700 5700 5699 5699 5698 5698 5697 5697 5696 5695 5694 5693 5691 5690